COSMOS 2251 DEB, 40810

Orbit data source: Space-Track

COSMOS 2251 DEB, 40810 is space debris in LEO originally from a launch on Wed, 16 Jun 1993 UTC launched from the Plesetsk Missile And Space Complex (PKMTR). The debris from Iridium 33, an American commercial communications satellite, has been tracked extensively since its accidental collision with the defunct Russian satellite Cosmos 2251 in 2009. This event, occurring at high speed in low Earth orbit (LEO), generated thousands of pieces of space debris, significantly increasing the risk of further collisions. The Iridium 33 debris cloud has impacted space traffic management and orbital debris mitigation strategies, making it a subject of ongoing study in space situational awareness.

Loading next visibility...
Identifier
40810, 1993-036BWP
Orbit
LEO
Country
Flag of CISCIS
Related business
Manufacturer
Unknown
Mission
Spacecraft
Bus & Motor
Unknown
Mass
Unknown
Launch date (UTC)
1993-06-16 (33 years ago)
Launch vehicle
Unknown
Launch site
Plesetsk Missile And Space Complex (PKMTR)
Object type
Payload
Rocket body
Debris
Shape & HBR
Unknown shape, 0.1 m
Radar Cross Section
Small (<0.1 m²)

Expand to show TLE details & history
Last TLE update: 2 days ago

TLE from 2 days ago
0 COSMOS 2251 DEB
1 40810U 93036BWP 26171.14533004  .00001786  00000-0  37827-3 0  9993
2 40810  74.0354  73.6574 0018719 174.2121 185.9265 14.59886093644467
Epoch: 2026-06-20T03:29Z
TLE epoch observation values (Epoch: 2026-06-20T03:29:16.515Z)
Latitude
0.00001°
Longitude
112.97443°
Altitude
709.351 km
Speed
7.494 km/s
True Right ascension
04h 54m 37s
True Declination
0° 00' 00"
Sunlit
Object was in daylight at epoch
Visualization orbit readout
Latitude
Unknown
Longitude
Unknown
Altitude
Unknown
Speed
Unknown
Apparent Right ascension
Unknown
Apparent Declination
Unknown
Sunlit
N/A
Visualization observer readout
Local Sidereal Time
21:44:33
Azimuth
Unknown
Elevation
Unknown
Doppler factor
Unknown
Orbital elements
Apogee altitude
704.372 km
Perigee altitude
677.907 km
Semi-major axis
7,069.277 km
Eccentricity
0.00187
Inclination
74.0354°
RAAN
73.6574°
Arg. of periapsis
174.2121°
True anomaly
185.9044°
Mean anomaly
185.9265°
Eccentric anomaly
185.91545°
Mean motion
3.65158 °/min
Orbital period
98.59 mins
BSTAR
0.00037827
Loading maneuver chart data...
Computing Atmospheric mass density...

Documentation

Showing up to 5 results
|